This demonstration page uses our WeatherBlox Daily Observations layout. Learn more.

Left ArrowRight Arrow

39.29038, -76.61219

Hourly Observations for June 6, 2020

Temp ( °F °C ) Dew Point ( °F °C ) Humidity (%) Winds ( mph kmh ) Pressure ( in mb ) Visibility ( mi km ) Precip ( " mm )
12:54 am 00:54 Cloudy 72 22.2 69 20.6 91 91 SSE 5 7 29.85 1011 7 11 0.00 0.00
1:54 am 01:54 Cloudy 71 21.7 69 20.6 94 94 Calm 29.84 1011 7 11 0.00 0.00
2:54 am 02:54 Mostly Cloudy with Mist and Fog 71 21.7 69 20.6 94 94 W 3 6 29.83 1010 6 10 0.00 0.00
3:54 am 03:54 Mostly Cloudy with Fog 70 21.1 68 20 93 93 SW 3 6 29.83 1010 6 10 0.00 0.00
4:54 am 04:54 Mostly Cloudy with Fog 69 20.6 67 19.4 93 93 W 5 7 29.82 1010 5 8 0.00 0.00
5:36 am 05:36 Mostly Cloudy with Fog 70 21.1 68 20 93 93 W 3 6 29.83 1010 5 8 0.00 0.00
5:54 am 05:54 Cloudy with Mist and Fog 70 21.1 68 20 93 93 WSW 6 9 29.83 1010 3 5 0.00 0.00
6:45 am 06:45 Mostly Cloudy with Mist and Fog 71 21.7 69 20.6 94 94 W 6 9 29.84 1011 4 6 0.00 0.00
6:54 am 06:54 Mostly Cloudy with Mist and Fog 71 21.7 69 20.6 94 94 W 8 13 29.84 1010 4 6 0.00 0.00
7:54 am 07:54 Mostly Cloudy with Mist and Fog 73 22.8 70 21.1 90 90 W 7 11 29.85 1011 6 10 0.00 0.00
8:33 am 08:33 Mostly Cloudy 75 23.9 70 21.1 84 84 WNW 8 13 29.85 1011 8 13 0.00 0.00
8:54 am 08:54 Mostly Cloudy 76 24.4 70 21.1 82 82 WNW 7 11 29.86 1011 10 16 0.00 0.00
9:54 am 09:54 Mostly Cloudy 79 26.1 70 21.1 74 74 WNW 9 15 29.86 1011 10 16 0.00 0.00
10:54 am 10:54 Mostly Cloudy 82 27.8 71 21.7 69 69 W 12 19 29.85 1011 10 16 0.00 0.00
11:54 am 11:54 Mostly Cloudy 85 29.4 71 21.7 63 63 WNW 8 13 29.84 1011 10 16 0.00 0.00
12:54 pm 12:54 Mostly Cloudy 87 30.6 70 21.1 57 57 NW 9 15 29.83 1010 10 16 0.00 0.00
1:54 pm 13:54 Mostly Cloudy 87 30.6 70 21.1 57 57 WSW 8 13 29.81 1010 10 16 0.00 0.00
2:54 pm 14:54 Mostly Cloudy 89 31.7 68 20 50 50 W 10 17 29.79 1009 10 16 0.00 0.00
3:54 pm 15:54 Mostly Cloudy 90 32.2 68 20 48 48 W 16 26 29.78 1008 10 16 0.00 0.00
4:54 pm 16:54 Mostly Cloudy 91 32.8 67 19.4 45 45 WNW 8 13 29.76 1008 10 16 0.00 0.00
5:54 pm 17:54 Partly Cloudy 89 31.7 61 16.1 39 39 W 12 19 29.75 1008 10 16 0.00 0.00
6:54 pm 18:54 Partly Cloudy 89 31.7 58 14.4 35 35 WNW 13 20 29.76 1008 10 16 0.00 0.00
7:54 pm 19:54 Partly Cloudy 85 29.4 58 14.4 40 40 NW 7 11 29.76 1008 10 16 0.00 0.00
8:54 pm 20:54 Mostly Cloudy 81 27.2 55 12.8 41 41 NW 6 9 29.78 1008 10 16 0.00 0.00
9:54 pm 21:54 Mostly Cloudy 79 26.1 52 11.1 39 39 NW 6 9 29.80 1009 10 16 0.00 0.00
10:54 pm 22:54 Mostly Cloudy 77 25 52 11.1 42 42 NW 5 7 29.82 1010 10 16 0.00 0.00
11:54 pm 23:54 Mostly Cloudy 74 23.3 52 11.1 46 46 NW 5 7 29.83 1010 10 16 0.00 0.00

Powered by AerisWeather